Wind_Speed
28 28 27 27 27 27 28 29 30 31 32 34 35 36 38 39 39 40 39 39 40 41 41 41 40 37 36 34 34 33 33 32 32 32 32 32 32 32 31 30 28 27 25
24 25 24 24 24 24 24 25 25 26 28 29 31 32 34 36 37 37 38 38 40 40 41 41 40 38 37 36 35 34 33 33 32 31 32 33 33 33 32 32 30 30 29
21 22 22 21 21 21 22 22 22 23 24 26 27 28 30 31 33 35 36 37 39 39 40 39 40 39 38 37 36 36 36 34 33 33 32 33 34 35 34 33 32 31 30
20 20 20 19 19 19 18 19 19 20 21 22 22 23 24 26 29 31 32 34 35 37 38 38 39 38 38 37 36 36 36 35 35 34 34 34 34 35 36 36 35 34 32
19 19 19 18 18 17 17 17 17 18 18 18 18 19 21 23 24 26 28 30 32 34 35 37 38 37 38 38 38 36 36 35 35 35 34 34 35 35 36 36 36 35 33
20 20 20 19 18 18 18 18 18 17 16 16 16 17 18 19 20 21 23 25 27 29 32 34 36 37 37 37 38 38 36 36 35 36 35 35 36 36 36 36 36 35 34
20 20 20 20 20 19 19 19 18 18 16 15 14 14 14 15 16 17 18 20 23 26 29 31 33 35 36 36 37 38 37 37 36 36 35 36 36 35 36 37 37 36 35
20 20 20 21 21 21 20 19 19 18 16 15 14 13 13 12 11 12 13 15 17 20 23 27 30 32 34 35 36 37 37 37 37 37 37 37 38 37 36 37 37 36 36
20 21 21 21 21 22 21 21 20 19 18 16 15 14 13 12 10 9 9 11 12 14 17 21 25 29 32 33 35 36 36 37 37 38 38 38 36 37 38 38 38 37 38
21 21 21 21 21 22 22 22 22 21 20 19 17 16 15 13 11 8 7 8 9 10 13 16 21 24 27 31 34 35 36 36 37 38 38 40 38 36 38 39 40 39 38
20 21 21 21 22 22 22 23 22 22 21 21 19 18 16 15 14 11 9 7 6 8 9 12 16 20 22 26 30 33 34 36 37 38 37 37 38 37 38 39 40 39 38
20 20 21 22 23 23 23 23 23 22 22 21 21 20 19 17 15 13 11 10 8 7 7 7 11 14 17 21 25 27 30 32 35 35 35 36 37 38 37 36 36 37 37
20 20 20 21 22 23 23 23 23 23 22 22 21 21 20 19 17 15 13 11 10 8 5 5 7 10 13 16 20 23 26 29 31 31 32 32 34 36 36 35 34 34 35
20 20 20 21 22 23 23 23 24 23 22 22 22 22 21 20 18 16 15 13 12 10 7 5 5 7 10 12 15 20 23 25 27 28 29 30 32 34 34 33 33 33 33
20 20 20 21 22 23 23 24 24 24 23 23 22 22 22 21 19 17 16 15 13 12 10 8 7 6 8 11 13 16 19 22 24 25 26 27 29 31 31 31 31 31 31
19 20 20 21 21 22 23 24 25 24 24 23 23 23 23 22 20 19 18 16 15 13 12 10 9 8 9 10 12 15 17 20 21 23 24 26 27 28 29 29 29 29 29
19 19 20 20 21 21 22 24 24 25 25 24 24 24 23 23 22 21 20 18 17 16 14 13 11 10 10 10 11 13 16 18 20 21 23 23 25 26 27 27 27 27 28
18 19 19 19 20 21 22 22 24 24 25 25 25 25 24 24 23 23 21 20 19 18 17 15 14 13 11 10 10 11 14 16 18 19 21 22 23 24 25 25 25 26 27
17 18 19 19 20 20 21 22 22 24 25 26 26 26 25 25 24 24 23 22 21 20 19 18 16 15 13 11 9 10 11 13 16 17 18 20 21 22 23 24 24 24 24
16 17 18 19 19 20 20 21 21 23 24 25 26 26 26 26 25 25 24 24 23 22 21 20 19 17 14 11 9 8 8 10 14 16 17 18 20 21 21 22 22 22 22
16 16 17 17 18 19 19 20 21 22 23 24 25 26 26 26 26 26 25 25 24 24 23 22 20 18 15 11 8 6 4 6 10 13 15 16 17 19 20 20 21 21 20
15 15 16 16 17 18 18 19 19 20 21 23 24 25 26 26 26 26 26 26 25 25 25 24 22 20 16 12 9 5 2 2 6 9 12 14 15 16 18 19 20 19 19
14 15 15 15 16 16 17 18 18 19 20 21 22 24 25 25 26 26 26 26 26 26 26 25 24 22 19 15 11 8 5 4 5 7 10 12 14 16 18 19 20 19 19
14 14 14 14 15 15 16 16 17 18 18 19 20 22 23 24 25 25 26 26 26 26 26 26 25 23 21 18 15 11 9 7 6 7 10 13 15 17 18 18 19 19 19
15 15 15 15 15 15 15 15 16 16 17 18 18 19 21 22 23 24 24 24 25 25 25 25 25 24 22 20 17 15 13 11 10 11 11 14 16 17 18 19 19 19 18
17 16 16 15 15 15 15 15 15 15 16 16 17 17 18 19 20 21 22 23 23 23 24 24 24 23 22 21 18 16 15 15 14 15 15 15 17 17 18 18 18 18 17
Wind_Direction
308 306 302 297 293 290 288 284 280 276 273 271 269 267 266 265 264 262 259 257 255 254 253 253 253 254 254 252 251 250 248 242 237 235 233 233 233 232 232 234 236 237 237
316 315 312 307 302 298 295 292 287 283 278 274 271 269 267 266 264 261 258 256 255 253 252 250 250 251 251 251 249 247 247 245 242 239 237 236 236 234 233 234 236 237 238
328 326 323 318 313 309 305 301 296 291 285 279 275 272 269 266 264 262 260 257 254 252 250 248 247 247 248 247 246 246 244 243 243 241 240 238 237 236 236 234 234 235 236
341 339 336 332 328 324 319 313 308 302 294 287 281 277 273 269 266 263 261 257 254 251 248 246 244 244 244 243 243 242 241 241 240 240 240 239 237 237 236 235 234 233 234
352 351 350 348 345 342 337 331 325 318 309 298 291 285 281 276 270 266 262 258 254 251 247 243 241 240 240 239 239 238 237 238 238 238 238 237 236 234 234 234 234 234 233
1 360 359 359 356 352 347 342 337 333 326 317 307 299 292 284 276 269 263 259 255 251 247 242 238 237 236 236 236 236 236 235 236 235 235 236 234 232 231 231 231 232 233
9 8 6 5 3 0 358 355 351 346 341 334 326 316 308 298 284 272 265 261 256 252 247 242 237 234 233 232 232 233 234 233 233 232 232 232 230 231 231 232 230 230 231
13 12 12 10 9 8 6 3 0 359 356 351 345 340 331 319 300 282 271 264 259 253 246 240 235 230 228 228 229 229 230 230 230 229 229 229 230 231 230 230 229 228 229
15 14 14 14 14 14 14 11 10 9 8 6 2 359 353 345 325 307 292 275 265 256 247 238 232 229 228 227 228 227 228 228 228 228 229 229 230 231 232 230 229 229 230
15 14 15 15 16 17 18 18 18 18 17 15 13 9 7 5 356 339 319 296 276 261 250 239 230 228 228 227 227 226 226 226 227 228 229 229 229 231 230 229 229 229 229
18 18 19 19 19 19 19 19 20 21 22 21 19 17 15 13 13 9 356 337 306 284 267 247 238 233 231 230 229 228 229 228 227 229 230 230 229 229 228 227 228 227 227
20 20 21 21 21 21 22 22 22 24 25 24 24 22 21 19 17 14 8 1 349 321 296 264 246 240 236 233 233 232 232 229 228 231 231 230 228 227 226 226 226 227 228
21 22 22 22 22 22 22 23 24 24 24 24 23 23 22 21 20 18 13 8 1 354 328 292 266 249 242 239 235 233 232 230 231 232 230 230 228 226 225 225 226 227 227
22 23 23 23 22 22 22 23 24 24 23 22 22 22 21 20 19 18 16 13 8 4 357 333 291 264 251 246 241 235 233 232 232 233 234 232 229 227 226 226 226 227 227
23 24 24 24 23 23 23 23 24 24 24 23 22 21 20 20 20 19 18 14 11 6 357 345 324 294 272 262 252 244 238 233 230 231 231 231 231 231 232 232 232 231 231
24 24 25 25 24 24 24 24 25 24 23 22 22 21 21 20 20 20 18 16 11 5 359 351 337 318 297 278 263 254 247 242 236 232 233 232 230 230 230 231 231 232 232
23 24 25 26 25 24 24 25 25 24 23 22 22 21 20 20 20 18 15 11 8 4 359 352 343 329 312 294 276 259 251 247 242 238 233 230 229 229 229 229 229 229 230
23 24 25 25 25 24 24 24 24 24 23 23 22 21 21 20 19 17 15 12 8 5 360 353 345 335 322 305 286 267 252 245 239 234 232 231 229 228 228 228 228 228 227
22 24 25 24 24 24 24 23 23 22 22 22 22 21 20 19 18 17 16 13 10 6 1 356 349 342 331 315 296 275 256 243 234 229 228 228 228 227 225 224 223 223 223
18 20 22 22 21 22 22 21 21 20 20 20 20 20 20 19 19 18 17 15 13 9 6 1 356 349 342 329 309 290 263 241 228 222 221 221 220 219 218 217 216 215 215
12 14 16 17 18 18 18 18 18 18 18 18 18 19 19 19 19 18 17 16 15 13 10 8 5 0 356 349 337 319 279 237 219 214 213 211 208 207 207 207 205 205 206
2 5 8 10 11 12 13 13 14 15 16 16 18 18 18 18 18 18 18 18 18 17 16 15 15 15 14 13 12 14 26 187 194 196 196 196 196 197 197 196 194 196 198
350 354 357 0 3 5 6 7 9 10 11 13 15 16 17 17 17 18 20 21 21 22 22 22 23 25 28 30 34 46 70 102 139 164 172 178 180 181 181 183 185 187 190
334 340 344 347 350 353 356 358 1 3 5 7 9 12 14 15 16 18 20 23 24 24 26 27 29 32 35 39 45 57 72 88 106 134 154 161 163 168 171 172 175 179 180
321 325 329 332 336 340 343 347 350 354 358 1 4 6 10 13 15 17 20 23 25 26 27 29 31 34 38 43 50 59 70 83 97 112 129 144 152 159 163 164 167 171 175
308 312 315 318 321 326 330 335 339 344 348 352 356 360 4 8 12 15 19 22 24 26 29 31 33 36 41 46 53 62 71 81 93 103 113 128 140 148 154 159 163 167 173
Height
5839 5835 5832 5828 5826 5823 5821 5818 5817 5816 5815 5815 5815 5815 5815 5816 5817 5819 5821 5824 5827 5829 5833 5836 5838 5841 5845 5848 5850 5852 5855 5858 5861 5865 5868 5872 5875 5879 5881 5883 5885 5887 5890
5834 5830 5825 5822 5819 5816 5814 5811 5809 5807 5806 5805 5805 5805 5805 5805 5806 5807 5809 5812 5815 5818 5822 5825 5829 5832 5836 5839 5842 5844 5847 5850 5853 5857 5860 5864 5868 5871 5874 5877 5880 5882 5884
5830 5826 5821 5817 5814 5811 5808 5805 5803 5801 5799 5797 5796 5795 5795 5795 5795 5796 5798 5800 5803 5806 5810 5814 5818 5822 5826 5830 5833 5836 5840 5842 5846 5849 5853 5856 5860 5864 5867 5870 5873 5876 5878
5828 5823 5818 5814 5810 5807 5803 5800 5797 5795 5792 5790 5789 5787 5787 5786 5786 5786 5787 5789 5792 5795 5798 5802 5806 5811 5815 5819 5823 5827 5830 5834 5838 5841 5845 5849 5852 5856 5859 5862 5866 5869 5872
5826 5822 5817 5813 5808 5804 5801 5797 5793 5790 5787 5785 5782 5781 5779 5778 5778 5778 5778 5780 5781 5784 5787 5791 5795 5799 5804 5809 5813 5817 5821 5825 5829 5833 5836 5840 5844 5847 5851 5855 5858 5862 5865
5826 5821 5816 5812 5807 5803 5799 5795 5791 5787 5783 5780 5778 5775 5773 5771 5770 5770 5770 5771 5772 5775 5777 5780 5784 5789 5793 5798 5803 5807 5811 5816 5820 5824 5828 5831 5835 5839 5843 5847 5850 5854 5858
5826 5822 5817 5812 5807 5802 5798 5793 5789 5785 5781 5777 5774 5771 5768 5766 5764 5764 5764 5764 5765 5766 5768 5771 5775 5779 5783 5788 5793 5797 5802 5806 5810 5815 5819 5823 5827 5830 5834 5838 5842 5846 5850
5827 5822 5817 5813 5808 5803 5798 5793 5788 5784 5780 5776 5772 5769 5766 5763 5761 5759 5759 5758 5758 5759 5760 5762 5766 5769 5774 5779 5783 5788 5792 5796 5801 5805 5809 5813 5818 5822 5825 5830 5833 5837 5842
5828 5823 5819 5814 5809 5804 5799 5793 5788 5784 5780 5775 5772 5768 5764 5761 5758 5757 5755 5754 5754 5754 5754 5756 5758 5762 5766 5770 5774 5778 5782 5787 5791 5796 5799 5804 5808 5812 5817 5821 5825 5829 5833
5829 5825 5820 5815 5810 5805 5800 5795 5790 5785 5780 5776 5772 5768 5764 5761 5757 5755 5753 5752 5751 5750 5750 5751 5752 5755 5758 5761 5765 5770 5774 5778 5782 5786 5790 5795 5799 5803 5807 5812 5816 5820 5825
5831 5826 5821 5816 5812 5807 5802 5797 5792 5787 5782 5778 5773 5769 5765 5761 5758 5755 5753 5751 5749 5748 5748 5748 5749 5750 5752 5755 5759 5762 5766 5770 5774 5778 5781 5785 5790 5795 5799 5803 5807 5812 5816
5832 5828 5823 5818 5813 5809 5804 5799 5794 5789 5784 5780 5775 5771 5767 5763 5759 5756 5753 5751 5749 5747 5746 5745 5746 5747 5748 5750 5753 5755 5758 5762 5766 5769 5773 5777 5781 5786 5790 5794 5799 5803 5808
5834 5829 5825 5820 5816 5811 5806 5801 5796 5791 5787 5782 5778 5773 5769 5765 5761 5757 5754 5752 5749 5747 5745 5744 5744 5744 5745 5746 5748 5750 5752 5755 5758 5761 5765 5769 5773 5778 5782 5786 5790 5795 5799
5835 5831 5827 5822 5818 5813 5808 5803 5798 5794 5789 5785 5780 5776 5771 5767 5763 5759 5756 5753 5750 5747 5745 5744 5743 5742 5742 5743 5744 5745 5747 5749 5752 5755 5758 5761 5765 5770 5774 5778 5783 5787 5792
5837 5833 5828 5824 5820 5815 5811 5806 5801 5796 5791 5787 5782 5778 5773 5769 5765 5761 5757 5754 5751 5748 5746 5743 5742 5740 5740 5739 5739 5740 5742 5743 5746 5748 5751 5755 5758 5762 5766 5771 5775 5780 5785
5839 5834 5830 5826 5822 5818 5813 5808 5803 5798 5794 5789 5785 5780 5775 5771 5766 5762 5759 5755 5752 5748 5745 5743 5740 5738 5737 5736 5735 5735 5736 5738 5740 5742 5745 5748 5751 5755 5760 5764 5769 5773 5778
5840 5836 5832 5828 5824 5820 5815 5811 5806 5801 5796 5792 5787 5782 5777 5773 5768 5764 5760 5756 5752 5748 5745 5742 5739 5736 5734 5732 5731 5731 5731 5732 5733 5736 5739 5742 5745 5749 5753 5757 5762 5767 5772
5841 5837 5834 5830 5826 5822 5817 5813 5808 5804 5799 5794 5789 5784 5779 5775 5770 5765 5761 5756 5752 5748 5744 5740 5737 5733 5730 5728 5727 5726 5726 5727 5728 5730 5733 5736 5739 5743 5748 5752 5756 5761 5766
5843 5839 5835 5831 5827 5823 5819 5815 5811 5806 5802 5797 5792 5787 5782 5777 5772 5767 5762 5757 5752 5748 5743 5739 5735 5731 5727 5724 5723 5722 5721 5722 5723 5725 5728 5731 5734 5738 5742 5747 5752 5756 5760
5844 5840 5836 5833 5829 5825 5821 5817 5813 5809 5804 5799 5794 5789 5784 5779 5773 5768 5763 5758 5753 5748 5743 5738 5732 5728 5724 5721 5719 5717 5717 5717 5718 5721 5723 5726 5730 5733 5737 5742 5747 5752 5756
5845 5841 5837 5834 5830 5827 5823 5819 5815 5810 5806 5801 5796 5791 5786 5781 5776 5770 5765 5759 5754 5748 5743 5737 5731 5726 5721 5718 5716 5714 5713 5714 5715 5717 5720 5723 5726 5730 5734 5739 5743 5748 5752
5845 5842 5838 5835 5831 5828 5824 5820 5816 5812 5808 5803 5799 5794 5789 5783 5778 5772 5767 5761 5755 5750 5744 5738 5732 5726 5721 5718 5715 5713 5712 5712 5713 5715 5717 5720 5724 5728 5732 5736 5741 5745 5750
5845 5842 5838 5835 5832 5829 5825 5821 5818 5814 5809 5805 5801 5796 5791 5786 5781 5775 5769 5763 5758 5752 5746 5740 5735 5729 5724 5720 5717 5715 5714 5713 5714 5715 5717 5719 5723 5726 5731 5735 5740 5744 5748
5844 5841 5838 5835 5832 5829 5826 5822 5819 5815 5811 5807 5802 5798 5793 5788 5783 5778 5772 5767 5762 5756 5751 5745 5739 5734 5729 5725 5721 5719 5717 5716 5716 5717 5718 5720 5723 5727 5731 5735 5740 5744 5748
5842 5840 5837 5834 5831 5828 5825 5822 5819 5815 5812 5808 5804 5800 5795 5791 5786 5781 5776 5771 5766 5760 5755 5750 5745 5740 5735 5730 5727 5724 5722 5721 5720 5720 5721 5723 5726 5729 5733 5737 5741 5745 5749
5840 5838 5835 5833 5830 5827 5824 5821 5818 5815 5812 5808 5805 5801 5797 5793 5789 5784 5779 5774 5769 5765 5760 5755 5750 5745 5741 5736 5733 5730 5728 5727 5726 5726 5726 5728 5730 5733 5736 5740 5743 5747 5750